Regional Weather Roundup
Issued by NWS

Home | Current Version | Previous Version | Graphics & Text | Print | Product List | Glossary On
Versions: 1 2 3 4 5 6 7 8 9 10 11 12 13 14 15 16 17 18 19 20 21 22 23 24 25 26 27 28 29 30 31 32 33 34 35 36 37 38 39 40 41 42 43 44 45 46 47 48 49 50
000
ASUS45 KCYS 300610
RWRWY

WYOMING REGIONAL WEATHER ROUNDUP
NATIONAL WEATHER SERVICE CHEYENNE WY
1200 AM MDT SUN AUG 30 2015

NOTE:  "FAIR" INDICATES FEW OR NO CLOUDS BELOW 12,000 FEET
WITH NO SIGNIFICANT WEATHER AND/OR OBSTRUCTIONS TO VISIBILITY.

WYZ001-300700-
YELLOWSTONE NATIONAL PARK

CITY           SKY/WX    TMP DP  RH WIND       PRES   REMARKS
LK YELLOWSTONE   N/A     55  45  68 CALM      30.21F
6HR MIN TEMP:  55; 6HR MAX TEMP:  71;

W YELLOWSTONE  NOT AVBL

$$
WYZ002>013-054>058-071-098>099-300700-
NORTHERN WYOMING

CITY           SKY/WX    TMP DP  RH WIND       PRES   REMARKS
JACKSON        FAIR      63  46  55 NW8       30.08S
CODY           FAIR      72  43  35 CALM      29.92F
GREYBULL       FAIR      70  42  36 CALM      29.82F
6HR MIN TEMP:  70; 6HR MAX TEMP:  95;

WORLAND        FAIR      72  38  29 SE6       29.85F
6HR MIN TEMP:  70; 6HR MAX TEMP:  92;

SHERIDAN       FAIR      64  45  49 S3        29.84F
6HR MIN TEMP:  63; 6HR MAX TEMP:  97;

BUFFALO        FAIR      76  35  22 SW9       29.93F
6HR MIN TEMP:  73; 6HR MAX TEMP:  91;

GILLETTE       FAIR      74  35  24 S16       29.90F
6HR MIN TEMP:  72; 6HR MAX TEMP:  93;

HULETT         FAIR      82  36  18 S24G30    29.92F
NEWCASTLE      FAIR      79  32  18 SE20      29.98F

$$
WYZ014>020-022>026-101>103-300700-
CENTRAL WYOMING

CITY           SKY/WX    TMP DP  RH WIND       PRES   REMARKS
BIG PINEY      FAIR      55  36  48 NW5       30.14F
6HR MIN TEMP:  55; 6HR MAX TEMP:  81;

PINEDALE       FAIR      55  43  62 W3        30.16S
DUBOIS         FAIR      55  39  54 W10       30.13F
LANDER         FAIR      73  38  27 CALM      29.99S
6HR MIN TEMP:  69; 6HR MAX TEMP:  85;

RIVERTON       FAIR      73  38  27 SE5       29.99F
6HR MIN TEMP:  71; 6HR MAX TEMP:  91;

CASPER         FAIR      65  30  27 W8        30.01F
6HR MIN TEMP:  64; 6HR MAX TEMP:  89;

DOUGLAS        FAIR      66  36  32 SE6       30.02F
6HR MIN TEMP:  65; 6HR MAX TEMP:  91;


$$
WYZ021-027>030-104>119-300700-
SOUTHERN WYOMING

CITY           SKY/WX    TMP DP  RH WIND       PRES   REMARKS
EVANSTON       FAIR      67  35  30 S9        30.14F
6HR MIN TEMP:  65; 6HR MAX TEMP:  83;

KEMMERER       FAIR      64  32  29 SE6       30.17S
FORT BRIDGER   PTCLDY    66  32  28 S12       30.18S
ROCK SPRINGS   FAIR      68  31  25 S6        30.13F
6HR MIN TEMP:  68; 6HR MAX TEMP:  84;

DIXON          FAIR      58  34  40 CALM      30.20F
RAWLINS        FAIR      66  27  23 VRB3      30.18S
6HR MIN TEMP:  64; 6HR MAX TEMP:  83; 6HR PCP: TRACE;

SARATOGA       FAIR      55  37  50 SE10      30.21F
LARAMIE        FAIR      56  38  50 SW7       30.23F
6HR MIN TEMP:  56; 6HR MAX TEMP:  81; 6HR PCP: TRACE;

CHEYENNE       FAIR      66  42  41 S12       30.17F
6HR MIN TEMP:  66; 6HR MAX TEMP:  83;

TORRINGTON     FAIR      63  44  50 E9        30.02F
6HR MIN TEMP:  63; 6HR MAX TEMP:  90;

PINE BLUFFS    FAIR      68  36  30 S14       30.12F

$$


USA.gov is the U.S. government's official web portal to all federal, state and local government web resources and services.